NOAA 16 DEB, 41494

Orbit data source: Space-Track

NOAA 16 DEB, 41494 is space debris in SSO originally from a launch on Thu, 21 Sep 2000 UTC launched from the Air Force Western Test Range (AFWTR). Debris objects in space refer to the collection of defunct objects orbiting the Earth. Examples of debris include non-operational satellites, rocket bodies, and fragments generated from explosions, collisions, or faulty payload assembly.

Loading next visibility...
Identifier
41494, 2000-055LS
Orbit
SSO
Country
Flag of USUS
Related business
Manufacturer
Unknown
Mission
Spacecraft
Bus & Motor
Unknown
Mass
Unknown
Launch date (UTC)
2000-09-21 (26 years ago)
Launch vehicle
Unknown
Launch site
Air Force Western Test Range (AFWTR)
Object type
Payload
Rocket body
Debris
Shape & HBR
Unknown shape, 0.1 m
Radar Cross Section
Medium (>0.1 m² and <1 m²)

Expand to show TLE details & history
Last TLE update: 1 day ago

TLE from 1 day ago
0 NOAA 16 DEB
1 41494U 00055LS  26208.36355511  .00009205  00000-0  18010-2 0  9997
2 41494  98.9343  57.9438 0020262 297.9234  61.9913 14.62958875540142
Epoch: 2026-07-27T08:43Z
TLE epoch observation values (Epoch: 2026-07-27T08:43:31.161Z)
Latitude
-0.0001°
Longitude
-17.98422°
Altitude
679.904 km
Speed
7.52 km/s
True Right ascension
03h 51m 46s
True Declination
0° 00' 00"
Sunlit
Object was in daylight at epoch
Visualization orbit readout
Latitude
Unknown
Longitude
Unknown
Altitude
Unknown
Speed
Unknown
Apparent Right ascension
Unknown
Apparent Declination
Unknown
Sunlit
N/A
Visualization observer readout
Local Sidereal Time
22:30:19
Azimuth
Unknown
Elevation
Unknown
Doppler factor
Unknown
Orbital elements
Apogee altitude
695.051 km
Perigee altitude
666.446 km
Semi-major axis
7,058.886 km
Eccentricity
0.00203
Inclination
98.9343°
RAAN
57.9438°
Arg. of periapsis
297.9234°
True anomaly
62.19653°
Mean anomaly
61.9913°
Eccentric anomaly
62.09389°
Mean motion
3.65964 °/min
Orbital period
98.37 mins
BSTAR
0.001801
Loading maneuver chart data...
Computing Atmospheric mass density...
Loading historical data...
Loading historical data...
Loading historical data...
Loading historical data...
Loading historical data...
Loading historical data...
Loading historical data...

Documentation

Showing up to 5 results
|